| time (UTC) | temp F | wind direction | speed MPH | gust MPH | rain 1hr in | rain 24hr in | rain mn in | humidity % | barometer mb |
| 20260905232523 | 88 | 350 | 1.0 | 4.0 | 0.00 | 0.00 | 0.00 | 31 | 1008.6 |
| 20260905232022 | 88 | 293 | 1.0 | 4.0 | 0.00 | 0.00 | 0.00 | 30 | 1008.6 |
| 20260905231521 | 88 | 359 | 1.0 | 9.0 | 0.00 | 0.00 | 0.00 | 31 | 1008.7 |
| 20260905231021 | 87 | 247 | 2.0 | 9.0 | 0.00 | 0.00 | 0.00 | 32 | 1008.8 |
| 20260905230524 | 88 | 354 | 1.0 | 5.0 | 0.00 | 0.00 | 0.00 | 31 | 1008.8 |
| 20260905230020 | 89 | 327 | 2.0 | 4.0 | 0.00 | 0.00 | 0.00 | 31 | 1008.9 |
| 20260905225519 | 89 | 246 | 1.0 | 5.0 | 0.00 | 0.00 | 0.00 | 30 | 1009.0 |
| 20260905225018 | 89 | 257 | 2.0 | 5.0 | 0.00 | 0.00 | 0.00 | 30 | 1009.1 |
| 20260905224518 | 89 | 38 | 2.0 | 6.0 | 0.00 | 0.00 | 0.00 | 30 | 1009.2 |
| 20260905224016 | 89 | 69 | 1.0 | 6.0 | 0.00 | 0.00 | 0.00 | 31 | 1009.1 |
| 20260905223515 | 88 | 27 | 1.0 | 5.0 | 0.00 | 0.00 | 0.00 | 31 | 1009.2 |
| 20260905223030 | 88 | 15 | 1.0 | 6.0 | 0.00 | 0.00 | 0.00 | 31 | 1009.3 |
| 20260905222514 | 88 | 318 | 3.0 | 6.0 | 0.00 | 0.00 | 0.00 | 31 | 1009.3 |
| 20260905222018 | 88 | 240 | 1.0 | 8.0 | 0.00 | 0.00 | 0.00 | 32 | 1009.4 |
| 20260905221532 | 86 | 35 | 3.0 | 8.0 | 0.00 | 0.00 | 0.00 | 32 | 1009.4 |
| 20260905221012 | 86 | 321 | 2.0 | 8.0 | 0.00 | 0.00 | 0.00 | 32 | 1009.4 |
| 20260905220510 | 87 | 264 | 4.0 | 8.0 | 0.00 | 0.00 | 0.00 | 31 | 1009.5 |
| 20260905220010 | 87 | 119 | 2.0 | 5.0 | 0.00 | 0.00 | 0.00 | 31 | 1009.6 |
| 20260905215513 | 86 | 232 | 2.0 | 5.0 | 0.00 | 0.00 | 0.00 | 31 | 1009.7 |
| 20260905215009 | 87 | 237 | 3.0 | 6.0 | 0.00 | 0.00 | 0.00 | 30 | 1009.8 |
| 20260905214508 | 87 | 258 | 3.0 | 6.0 | 0.00 | 0.00 | 0.00 | 31 | 1009.8 |
| 20260905214007 | 86 | 323 | 0.0 | 9.0 | 0.00 | 0.00 | 0.00 | 32 | 1009.9 |
| 20260905213506 | 86 | 255 | 4.0 | 9.0 | 0.00 | 0.00 | 0.00 | 32 | 1010.0 |
| 20260905213006 | 86 | 272 | 1.0 | 3.0 | 0.00 | 0.00 | 0.00 | 31 | 1009.9 |
| 20260905212506 | 85 | 202 | 0.0 | 10.0 | 0.00 | 0.00 | 0.00 | 31 | 1010.0 |
| 20260905212005 | 86 | 168 | 2.0 | 10.0 | 0.00 | 0.00 | 0.00 | 31 | 1010.0 |
| 20260905211513 | 86 | 48 | 1.0 | 7.0 | 0.00 | 0.00 | 0.00 | 31 | 1010.1 |
| 20260905211004 | 85 | 201 | 1.0 | 7.0 | 0.00 | 0.00 | 0.00 | 31 | 1010.1 |
| 20260905210505 | 86 | 154 | 3.0 | 8.0 | 0.00 | 0.00 | 0.00 | 31 | 1010.2 |
| 20260905210006 | 86 | 89 | 3.0 | 6.0 | 0.00 | 0.00 | 0.00 | 31 | 1010.3 |
| 20260905205503 | 86 | 339 | 1.0 | 5.0 | 0.00 | 0.00 | 0.00 | 31 | 1010.3 |
| 20260905205004 | 85 | 291 | 2.0 | 6.0 | 0.00 | 0.00 | 0.00 | 32 | 1010.3 |
| 20260905204503 | 85 | 97 | 2.0 | 6.0 | 0.00 | 0.00 | 0.00 | 30 | 1010.2 |
| 20260905204001 | 85 | 205 | 1.0 | 6.0 | 0.00 | 0.00 | 0.00 | 31 | 1010.3 |
| 20260905203600 | 84 | 201 | 2.0 | 6.0 | 0.00 | 0.00 | 0.00 | 31 | 1010.3 |
| 20260905203059 | 83 | 252 | 1.0 | 9.0 | 0.00 | 0.00 | 0.00 | 32 | 1010.4 |
| 20260905202557 | 83 | 265 | 4.0 | 9.0 | 0.00 | 0.00 | 0.00 | 32 | 1010.4 |
| 20260905202057 | 83 | 258 | 2.0 | 8.0 | 0.00 | 0.00 | 0.00 | 34 | 1010.5 |
| 20260905201607 | 82 | 304 | 4.0 | 8.0 | 0.00 | 0.00 | 0.00 | 33 | 1010.5 |
| 20260905201056 | 83 | 277 | 3.0 | 8.0 | 0.00 | 0.00 | 0.00 | 33 | 1010.5 |
| 20260905200555 | 82 | 338 | 2.0 | 8.0 | 0.00 | 0.00 | 0.00 | 33 | 1010.5 |
| 20260905200120 | 81 | 251 | 1.0 | 7.0 | 0.00 | 0.00 | 0.00 | 34 | 1010.6 |
| 20260905195558 | 81 | 303 | 2.0 | 8.0 | 0.00 | 0.00 | 0.00 | 34 | 1010.7 |
| 20260905195054 | 81 | 280 | 3.0 | 8.0 | 0.00 | 0.00 | 0.00 | 34 | 1010.7 |
| 20260905194554 | 80 | 337 | 1.0 | 5.0 | 0.00 | 0.00 | 0.00 | 35 | 1010.8 |
| 20260905194054 | 80 | 27 | 1.0 | 8.0 | 0.00 | 0.00 | 0.00 | 34 | 1010.8 |
| 20260905193554 | 81 | 293 | 4.0 | 8.0 | 0.00 | 0.00 | 0.00 | 33 | 1010.9 |
| 20260905193053 | 81 | 330 | 0.0 | 5.0 | 0.00 | 0.00 | 0.00 | 34 | 1010.8 |
| 20260905192552 | 80 | 287 | 2.0 | 5.0 | 0.00 | 0.00 | 0.00 | 35 | 1010.9 |
| 20260905192056 | 81 | 316 | 1.0 | 4.0 | 0.00 | 0.00 | 0.00 | 33 | 1010.9 |
| 20260905191552 | 81 | 38 | 1.0 | 4.0 | 0.00 | 0.00 | 0.00 | 34 | 1011.0 |
| 20260905191050 | 79 | 33 | 1.0 | 5.0 | 0.00 | 0.00 | 0.00 | 37 | 1011.1 |
| 20260905190548 | 77 | 8 | 1.0 | 6.0 | 0.00 | 0.00 | 0.00 | 39 | 1011.1 |
| 20260905190048 | 77 | 316 | 2.0 | 6.0 | 0.00 | 0.00 | 0.00 | 38 | 1011.2 |
| 20260905185547 | 77 | 230 | 2.0 | 7.0 | 0.00 | 0.00 | 0.00 | 38 | 1011.3 |
| 20260905185050 | 76 | 326 | 4.0 | 7.0 | 0.00 | 0.00 | 0.00 | 40 | 1011.3 |
| 20260905184547 | 76 | 243 | 4.0 | 7.0 | 0.00 | 0.00 | 0.00 | 40 | 1011.3 |
| 20260905184047 | 76 | 186 | 4.0 | 8.0 | 0.00 | 0.00 | 0.00 | 41 | 1011.4 |
| 20260905183547 | 77 | 324 | 2.0 | 8.0 | 0.00 | 0.00 | 0.00 | 40 | 1011.5 |
| 20260905183048 | 77 | 297 | 3.0 | 8.0 | 0.00 | 0.00 | 0.00 | 42 | 1011.5 |
| 20260905182544 | 76 | 283 | 4.0 | 9.0 | 0.00 | 0.00 | 0.00 | 41 | 1011.5 |
| 20260905182045 | 75 | 354 | 3.0 | 9.0 | 0.00 | 0.00 | 0.00 | 41 | 1011.5 |
| 20260905181543 | 75 | 236 | 5.0 | 9.0 | 0.00 | 0.00 | 0.00 | 42 | 1011.5 |
| 20260905181043 | 75 | 269 | 5.0 | 9.0 | 0.00 | 0.00 | 0.00 | 41 | 1011.6 |
| 20260905180545 | 75 | 322 | 2.0 | 8.0 | 0.00 | 0.00 | 0.00 | 43 | 1011.5 |
| 20260905180040 | 74 | 306 | 4.0 | 9.0 | 0.00 | 0.00 | 0.00 | 43 | 1011.5 |
| 20260905175539 | 74 | 249 | 3.0 | 9.0 | 0.00 | 0.00 | 0.00 | 44 | 1011.5 |
| 20260905175040 | 74 | 294 | 3.0 | 9.0 | 0.00 | 0.00 | 0.00 | 43 | 1011.5 |
| 20260905174538 | 74 | 336 | 3.0 | 7.0 | 0.00 | 0.00 | 0.00 | 44 | 1011.4 |
| 20260905174040 | 74 | 313 | 3.0 | 6.0 | 0.00 | 0.00 | 0.00 | 43 | 1011.4 |
| 20260905173536 | 73 | 328 | 2.0 | 10.0 | 0.00 | 0.00 | 0.00 | 44 | 1011.4 |
| 20260905173038 | 73 | 33 | 4.0 | 10.0 | 0.00 | 0.00 | 0.00 | 44 | 1011.3 |
| 20260905172533 | 72 | 322 | 3.0 | 8.0 | 0.00 | 0.00 | 0.00 | 45 | 1011.4 |
| 20260905172031 | 71 | 277 | 3.0 | 5.0 | 0.00 | 0.00 | 0.00 | 45 | 1011.3 |
| 20260905171541 | 71 | 332 | 1.0 | 8.0 | 0.00 | 0.00 | 0.00 | 47 | 1011.3 |
| 20260905171029 | 71 | 294 | 2.0 | 8.0 | 0.00 | 0.00 | 0.00 | 47 | 1011.3 |
| 20260905170529 | 71 | 274 | 3.0 | 8.0 | 0.00 | 0.00 | 0.00 | 48 | 1011.3 |
| 20260905170031 | 70 | 330 | 2.0 | 5.0 | 0.00 | 0.00 | 0.00 | 48 | 1011.3 |
| 20260905165529 | 70 | 328 | 1.0 | 5.0 | 0.00 | 0.00 | 0.00 | 48 | 1011.3 |
| 20260905165026 | 70 | 336 | 2.0 | 8.0 | 0.00 | 0.00 | 0.00 | 49 | 1011.3 |
| 20260905164525 | 70 | 288 | 3.0 | 8.0 | 0.00 | 0.00 | 0.00 | 49 | 1011.3 |
| 20260905164025 | 69 | 4 | 1.0 | 8.0 | 0.00 | 0.00 | 0.00 | 50 | 1011.3 |
| 20260905163523 | 69 | 317 | 2.0 | 5.0 | 0.00 | 0.00 | 0.00 | 52 | 1011.3 |
| 20260905163023 | 68 | 35 | 2.0 | 6.0 | 0.00 | 0.00 | 0.00 | 54 | 1011.2 |
| 20260905162521 | 67 | 341 | 3.0 | 8.0 | 0.00 | 0.00 | 0.00 | 53 | 1011.2 |
| 20260905162019 | 67 | 316 | 4.0 | 9.0 | 0.00 | 0.00 | 0.00 | 52 | 1011.2 |
| 20260905161528 | 67 | 10 | 2.0 | 9.0 | 0.00 | 0.00 | 0.00 | 54 | 1011.2 |
| 20260905161024 | 67 | 18 | 3.0 | 9.0 | 0.00 | 0.00 | 0.00 | 53 | 1011.2 |
| 20260905160520 | 67 | 265 | 3.0 | 10.0 | 0.00 | 0.00 | 0.00 | 53 | 1011.3 |
| 20260905160028 | 67 | 305 | 4.0 | 10.0 | 0.00 | 0.00 | 0.00 | 54 | 1011.2 |
| 20260905155517 | 66 | 301 | 4.0 | 9.0 | 0.00 | 0.00 | 0.00 | 54 | 1011.2 |
| 20260905155017 | 66 | 274 | 5.0 | 9.0 | 0.00 | 0.00 | 0.00 | 55 | 1011.2 |
| 20260905154537 | 65 | 333 | 4.0 | 6.0 | 0.00 | 0.00 | 0.00 | 55 | 1011.2 |
| 20260905154016 | 65 | 338 | 3.0 | 6.0 | 0.00 | 0.00 | 0.00 | 54 | 1011.2 |
| 20260905153515 | 65 | 342 | 2.0 | 6.0 | 0.00 | 0.00 | 0.00 | 54 | 1011.1 |
| 20260905153016 | 65 | 304 | 3.0 | 8.0 | 0.00 | 0.00 | 0.00 | 55 | 1011.0 |
| 20260905152515 | 65 | 347 | 3.0 | 8.0 | 0.00 | 0.00 | 0.00 | 56 | 1011.0 |
| 20260905152013 | 65 | 337 | 1.0 | 9.0 | 0.00 | 0.00 | 0.00 | 58 | 1011.1 |
| 20260905151516 | 65 | 15 | 4.0 | 9.0 | 0.00 | 0.00 | 0.00 | 57 | 1011.1 |
| 20260905151015 | 65 | 287 | 4.0 | 8.0 | 0.00 | 0.00 | 0.00 | 58 | 1011.0 |
| 20260905150513 | 65 | 249 | 3.0 | 9.0 | 0.00 | 0.00 | 0.00 | 59 | 1010.9 |
| 20260905150011 | 64 | 305 | 4.0 | 9.0 | 0.00 | 0.00 | 0.00 | 59 | 1010.9 |
| 20260905145512 | 64 | 289 | 4.0 | 9.0 | 0.00 | 0.00 | 0.00 | 60 | 1010.8 |
| 20260905145011 | 64 | 343 | 5.0 | 9.0 | 0.00 | 0.00 | 0.00 | 60 | 1010.9 |
| 20260905144509 | 64 | 305 | 4.0 | 9.0 | 0.00 | 0.00 | 0.00 | 60 | 1011.0 |
| 20260905144008 | 63 | 336 | 4.0 | 10.0 | 0.00 | 0.00 | 0.00 | 61 | 1010.9 |
| 20260905143508 | 63 | 335 | 4.0 | 10.0 | 0.00 | 0.00 | 0.00 | 61 | 1011.0 |
| 20260905143007 | 63 | 4 | 4.0 | 9.0 | 0.00 | 0.00 | 0.00 | 61 | 1011.0 |
| 20260905142505 | 63 | 295 | 3.0 | 10.0 | 0.00 | 0.00 | 0.00 | 61 | 1010.9 |
| 20260905142005 | 63 | 340 | 2.0 | 11.0 | 0.00 | 0.00 | 0.00 | 62 | 1010.8 |
| 20260905141503 | 63 | 337 | 3.0 | 6.0 | 0.00 | 0.00 | 0.00 | 62 | 1010.8 |
| 20260905141004 | 62 | 264 | 2.0 | 10.0 | 0.00 | 0.00 | 0.00 | 63 | 1010.8 |
| 20260905140501 | 62 | 11 | 5.0 | 10.0 | 0.00 | 0.00 | 0.00 | 62 | 1010.7 |
| 20260905135601 | 62 | 289 | 3.0 | 5.0 | 0.00 | 0.00 | 0.00 | 63 | 1010.7 |
| 20260905135101 | 62 | 339 | 2.0 | 9.0 | 0.00 | 0.00 | 0.00 | 63 | 1010.6 |
| 20260905134558 | 62 | 299 | 3.0 | 9.0 | 0.00 | 0.00 | 0.00 | 62 | 1010.6 |
| 20260905134057 | 62 | 346 | 4.0 | 10.0 | 0.00 | 0.00 | 0.00 | 63 | 1010.5 |
| 20260905133556 | 62 | 315 | 3.0 | 10.0 | 0.00 | 0.00 | 0.00 | 62 | 1010.4 |
| 20260905133057 | 62 | 348 | 4.0 | 10.0 | 0.00 | 0.00 | 0.00 | 63 | 1010.2 |
| 20260905132555 | 62 | 315 | 3.0 | 7.0 | 0.00 | 0.00 | 0.00 | 63 | 1010.3 |
| 20260905132055 | 62 | 303 | 2.0 | 6.0 | 0.00 | 0.00 | 0.00 | 63 | 1010.4 |
| 20260905131556 | 62 | 266 | 1.0 | 6.0 | 0.00 | 0.00 | 0.00 | 63 | 1010.3 |
| 20260905131053 | 62 | 354 | 3.0 | 6.0 | 0.00 | 0.00 | 0.00 | 63 | 1010.1 |
| 20260905130554 | 62 | 328 | 2.0 | 9.0 | 0.00 | 0.00 | 0.00 | 64 | 1010.2 |
| 20260905130052 | 62 | 293 | 3.0 | 9.0 | 0.00 | 0.00 | 0.00 | 64 | 1010.3 |
| 20260905125554 | 62 | 318 | 2.0 | 4.0 | 0.00 | 0.00 | 0.00 | 65 | 1010.4 |
| 20260905125051 | 62 | 300 | 2.0 | 4.0 | 0.00 | 0.00 | 0.00 | 65 | 1010.3 |
| 20260905124552 | 62 | 308 | 1.0 | 8.0 | 0.00 | 0.00 | 0.00 | 66 | 1010.3 |
| 20260905124049 | 62 | 342 | 3.0 | 8.0 | 0.00 | 0.00 | 0.00 | 66 | 1010.3 |
| 20260905123549 | 62 | 334 | 3.0 | 10.0 | 0.00 | 0.00 | 0.00 | 66 | 1010.3 |
| 20260905123049 | 62 | 303 | 3.0 | 10.0 | 0.00 | 0.00 | 0.00 | 66 | 1010.2 |
| 20260905122548 | 62 | 278 | 3.0 | 10.0 | 0.00 | 0.00 | 0.00 | 66 | 1010.2 |
| 20260905122050 | 62 | 345 | 5.0 | 10.0 | 0.00 | 0.00 | 0.00 | 66 | 1010.1 |
| 20260905121547 | 62 | 311 | 4.0 | 9.0 | 0.00 | 0.00 | 0.00 | 66 | 1010.2 |
| 20260905121047 | 62 | 268 | 3.0 | 7.0 | 0.00 | 0.00 | 0.00 | 66 | 1010.2 |
| 20260905120546 | 62 | 270 | 3.0 | 8.0 | 0.00 | 0.00 | 0.00 | 66 | 1010.3 |
| 20260905120045 | 62 | 354 | 2.0 | 9.0 | 0.00 | 0.00 | 0.00 | 66 | 1010.2 |
| 20260905115546 | 62 | 354 | 2.0 | 9.0 | 0.00 | 0.00 | 0.00 | 66 | 1010.2 |
| 20260905115045 | 63 | 334 | 3.0 | 8.0 | 0.00 | 0.00 | 0.00 | 66 | 1010.3 |
| 20260905114553 | 63 | 338 | 4.0 | 8.0 | 0.00 | 0.00 | 0.00 | 66 | 1010.3 |
| 20260905114044 | 63 | 295 | 2.0 | 6.0 | 0.00 | 0.00 | 0.00 | 66 | 1010.4 |
| 20260905113544 | 63 | 338 | 2.0 | 9.0 | 0.00 | 0.00 | 0.00 | 66 | 1010.3 |
| 20260905113044 | 63 | 320 | 3.0 | 9.0 | 0.00 | 0.00 | 0.00 | 66 | 1010.4 |
| 20260905112542 | 63 | 317 | 3.0 | 9.0 | 0.00 | 0.00 | 0.00 | 66 | 1010.4 |
| 20260905112044 | 63 | 259 | 3.0 | 9.0 | 0.00 | 0.00 | 0.00 | 66 | 1010.5 |
| 20260905111542 | 63 | 350 | 3.0 | 9.0 | 0.00 | 0.00 | 0.00 | 66 | 1010.5 |
| 20260905111042 | 63 | 294 | 3.0 | 8.0 | 0.00 | 0.00 | 0.00 | 66 | 1010.5 |
| 20260905110541 | 63 | 295 | 3.0 | 8.0 | 0.00 | 0.00 | 0.00 | 66 | 1010.5 |
| 20260905110041 | 63 | 312 | 4.0 | 9.0 | 0.00 | 0.00 | 0.00 | 66 | 1010.5 |
| 20260905105541 | 63 | 331 | 3.0 | 9.0 | 0.00 | 0.00 | 0.00 | 66 | 1010.6 |
| 20260905105041 | 63 | 347 | 3.0 | 8.0 | 0.00 | 0.00 | 0.00 | 66 | 1010.5 |
| 20260905104546 | 63 | 328 | 3.0 | 8.0 | 0.00 | 0.00 | 0.00 | 66 | 1010.5 |
| 20260905104044 | 63 | 339 | 4.0 | 8.0 | 0.00 | 0.00 | 0.00 | 66 | 1010.4 |
| 20260905103540 | 63 | 305 | 2.0 | 8.0 | 0.00 | 0.00 | 0.00 | 66 | 1010.5 |
| 20260905103042 | 63 | 334 | 3.0 | 8.0 | 0.00 | 0.00 | 0.00 | 66 | 1010.5 |
| 20260905102540 | 63 | 294 | 3.0 | 8.0 | 0.00 | 0.00 | 0.00 | 66 | 1010.6 |
| 20260905102038 | 63 | 335 | 2.0 | 8.0 | 0.00 | 0.00 | 0.00 | 66 | 1010.6 |
| 20260905101540 | 63 | 345 | 2.0 | 10.0 | 0.00 | 0.00 | 0.00 | 66 | 1010.5 |
| 20260905101037 | 63 | 354 | 4.0 | 10.0 | 0.00 | 0.00 | 0.00 | 66 | 1010.6 |
| 20260905100538 | 63 | 359 | 2.0 | 8.0 | 0.00 | 0.00 | 0.00 | 66 | 1010.6 |
| 20260905100037 | 63 | 317 | 3.0 | 10.0 | 0.00 | 0.00 | 0.00 | 66 | 1010.5 |
| 20260905095537 | 63 | 287 | 4.0 | 11.0 | 0.00 | 0.00 | 0.00 | 66 | 1010.6 |
| 20260905095037 | 63 | 332 | 4.0 | 11.0 | 0.00 | 0.00 | 0.00 | 67 | 1010.5 |
| 20260905094554 | 63 | 347 | 4.0 | 10.0 | 0.00 | 0.00 | 0.00 | 67 | 1010.6 |
| 20260905094035 | 63 | 312 | 4.0 | 9.0 | 0.00 | 0.00 | 0.00 | 67 | 1010.6 |
| 20260905093536 | 63 | 323 | 5.0 | 9.0 | 0.00 | 0.00 | 0.00 | 67 | 1010.6 |
| 20260905093042 | 63 | 299 | 3.0 | 8.0 | 0.00 | 0.00 | 0.00 | 67 | 1010.7 |
| 20260905092537 | 63 | 321 | 3.0 | 9.0 | 0.00 | 0.00 | 0.00 | 68 | 1010.6 |
| 20260905092036 | 63 | 325 | 4.0 | 11.0 | 0.00 | 0.00 | 0.00 | 67 | 1010.7 |
| 20260905091533 | 64 | 359 | 4.0 | 11.0 | 0.00 | 0.00 | 0.00 | 67 | 1010.6 |
| 20260905091035 | 64 | 323 | 3.0 | 9.0 | 0.00 | 0.00 | 0.00 | 67 | 1010.7 |
| 20260905090531 | 64 | 335 | 3.0 | 8.0 | 0.00 | 0.00 | 0.00 | 67 | 1010.8 |
| 20260905090031 | 64 | 323 | 2.0 | 8.0 | 0.00 | 0.00 | 0.00 | 67 | 1010.9 |
| 20260905085533 | 64 | 330 | 3.0 | 8.0 | 0.00 | 0.00 | 0.00 | 66 | 1010.9 |
| 20260905085033 | 64 | 318 | 3.0 | 9.0 | 0.00 | 0.00 | 0.00 | 66 | 1010.8 |
| 20260905084537 | 64 | 354 | 3.0 | 9.0 | 0.00 | 0.00 | 0.00 | 66 | 1010.9 |
| 20260905084031 | 64 | 320 | 2.0 | 10.0 | 0.00 | 0.00 | 0.00 | 66 | 1010.9 |
| 20260905083532 | 64 | 341 | 3.0 | 10.0 | 0.00 | 0.00 | 0.00 | 66 | 1011.0 |
| 20260905083029 | 64 | 8 | 3.0 | 12.0 | 0.00 | 0.00 | 0.00 | 65 | 1010.9 |
| 20260905082528 | 65 | 359 | 5.0 | 12.0 | 0.00 | 0.00 | 0.00 | 65 | 1010.9 |
| 20260905082028 | 65 | 312 | 3.0 | 8.0 | 0.00 | 0.00 | 0.00 | 65 | 1010.9 |
| 20260905081527 | 65 | 341 | 3.0 | 10.0 | 0.00 | 0.00 | 0.00 | 64 | 1011.0 |
| 20260905081026 | 65 | 320 | 4.0 | 10.0 | 0.00 | 0.00 | 0.00 | 64 | 1011.0 |
| 20260905080525 | 65 | 297 | 5.0 | 10.0 | 0.00 | 0.00 | 0.00 | 64 | 1010.9 |
| 20260905080040 | 65 | 341 | 2.0 | 9.0 | 0.00 | 0.00 | 0.00 | 63 | 1010.9 |
| 20260905075524 | 66 | 315 | 4.0 | 11.0 | 0.00 | 0.00 | 0.00 | 63 | 1011.0 |
| 20260905075027 | 66 | 4 | 4.0 | 11.0 | 0.00 | 0.00 | 0.00 | 63 | 1010.9 |
| 20260905074523 | 66 | 337 | 4.0 | 11.0 | 0.00 | 0.00 | 0.00 | 63 | 1010.9 |
| 20260905074023 | 66 | 337 | 5.0 | 11.0 | 0.00 | 0.00 | 0.00 | 62 | 1011.0 |
| 20260905073521 | 66 | 335 | 2.0 | 11.0 | 0.00 | 0.00 | 0.00 | 62 | 1010.9 |
| 20260905073035 | 66 | 302 | 3.0 | 13.0 | 0.00 | 0.00 | 0.00 | 61 | 1010.9 |
| 20260905072519 | 66 | 336 | 5.0 | 13.0 | 0.00 | 0.00 | 0.00 | 61 | 1010.8 |
| 20260905072019 | 67 | 4 | 6.0 | 12.0 | 0.00 | 0.00 | 0.00 | 60 | 1010.7 |
| 20260905071517 | 67 | 337 | 5.0 | 12.0 | 0.00 | 0.00 | 0.00 | 60 | 1010.8 |
| 20260905071017 | 67 | 340 | 7.0 | 14.0 | 0.00 | 0.00 | 0.00 | 59 | 1010.8 |
| 20260905070518 | 67 | 305 | 7.0 | 14.0 | 0.00 | 0.00 | 0.00 | 58 | 1010.8 |
| 20260905070015 | 67 | 316 | 6.0 | 12.0 | 0.00 | 0.00 | 0.00 | 58 | 1010.7 |
| 20260905065516 | 67 | 334 | 5.0 | 16.0 | 0.00 | 0.00 | 0.00 | 58 | 1010.5 |
| 20260905065015 | 67 | 293 | 7.0 | 16.0 | 0.00 | 0.00 | 0.00 | 57 | 1010.6 |
| 20260905064515 | 68 | 348 | 3.0 | 12.0 | 0.00 | 0.00 | 0.00 | 57 | 1010.6 |
| 20260905064015 | 68 | 335 | 6.0 | 12.0 | 0.00 | 0.00 | 0.00 | 56 | 1010.5 |
| 20260905063514 | 68 | 310 | 6.0 | 11.0 | 0.00 | 0.00 | 0.00 | 56 | 1010.6 |
| 20260905063014 | 68 | 272 | 3.0 | 11.0 | 0.00 | 0.00 | 0.00 | 56 | 1010.6 |
| 20260905062514 | 68 | 288 | 3.0 | 11.0 | 0.00 | 0.00 | 0.00 | 56 | 1010.6 |
| 20260905062014 | 68 | 293 | 4.0 | 8.0 | 0.00 | 0.00 | 0.00 | 55 | 1010.6 |
| 20260905061515 | 68 | 335 | 2.0 | 11.0 | 0.00 | 0.00 | 0.00 | 55 | 1010.5 |
| 20260905061015 | 68 | 312 | 5.0 | 11.0 | 0.00 | 0.00 | 0.00 | 54 | 1010.5 |
| 20260905060514 | 68 | 308 | 3.0 | 13.0 | 0.00 | 0.00 | 0.00 | 54 | 1010.5 |
| 20260905060014 | 68 | 272 | 4.0 | 13.0 | 0.00 | 0.00 | 0.00 | 53 | 1010.5 |
| 20260905055513 | 69 | 315 | 5.0 | 14.0 | 0.00 | 0.00 | 0.00 | 53 | 1010.5 |
| 20260905055013 | 69 | 343 | 5.0 | 14.0 | 0.00 | 0.00 | 0.00 | 52 | 1010.5 |
| 20260905054515 | 69 | 312 | 4.0 | 12.0 | 0.00 | 0.00 | 0.00 | 52 | 1010.4 |
| 20260905054013 | 69 | 298 | 5.0 | 10.0 | 0.00 | 0.00 | 0.00 | 52 | 1010.5 |
| 20260905053513 | 69 | 337 | 2.0 | 10.0 | 0.00 | 0.00 | 0.00 | 52 | 1010.4 |
| 20260905053019 | 69 | 341 | 3.0 | 10.0 | 0.00 | 0.00 | 0.00 | 52 | 1010.4 |
| 20260905052511 | 69 | 322 | 3.0 | 9.0 | 0.00 | 0.00 | 0.00 | 51 | 1010.4 |
| 20260905052013 | 69 | 335 | 4.0 | 9.0 | 0.00 | 0.00 | 0.00 | 51 | 1010.4 |
| 20260905051512 | 69 | 342 | 5.0 | 10.0 | 0.00 | 0.00 | 0.00 | 51 | 1010.4 |
| 20260905051012 | 69 | 332 | 3.0 | 10.0 | 0.00 | 0.00 | 0.00 | 51 | 1010.4 |
| 20260905050512 | 70 | 330 | 3.0 | 10.0 | 0.00 | 0.00 | 0.00 | 50 | 1010.3 |
| 20260905050013 | 70 | 342 | 3.0 | 10.0 | 0.00 | 0.00 | 0.00 | 50 | 1010.3 |
| 20260905045512 | 70 | 270 | 4.0 | 10.0 | 0.00 | 0.00 | 0.00 | 50 | 1010.2 |
| 20260905045011 | 70 | 346 | 3.0 | 6.0 | 0.00 | 0.00 | 0.00 | 50 | 1010.3 |
| 20260905044516 | 70 | 310 | 2.0 | 11.0 | 0.00 | 0.00 | 0.00 | 49 | 1010.2 |
| 20260905044012 | 70 | 354 | 5.0 | 10.0 | 0.00 | 0.00 | 0.00 | 49 | 1010.2 |
| 20260905043511 | 71 | 328 | 3.0 | 9.0 | 0.00 | 0.00 | 0.00 | 48 | 1010.1 |
| 20260905043011 | 71 | 332 | 4.0 | 9.0 | 0.00 | 0.00 | 0.00 | 48 | 1010.1 |
| 20260905042513 | 71 | 322 | 5.0 | 10.0 | 0.00 | 0.00 | 0.00 | 47 | 1010.0 |
| 20260905042011 | 71 | 287 | 4.0 | 10.0 | 0.00 | 0.00 | 0.00 | 47 | 1009.9 |
| 20260905041511 | 72 | 323 | 4.0 | 8.0 | 0.00 | 0.00 | 0.00 | 47 | 1009.9 |
| 20260905041012 | 72 | 318 | 3.0 | 9.0 | 0.00 | 0.00 | 0.00 | 46 | 1009.7 |
| 20260905040510 | 72 | 332 | 4.0 | 9.0 | 0.00 | 0.00 | 0.00 | 45 | 1009.7 |
| 20260905040016 | 73 | 325 | 3.0 | 9.0 | 0.00 | 0.00 | 0.00 | 44 | 1009.6 |
| 20260905035510 | 73 | 312 | 3.0 | 9.0 | 0.00 | 0.00 | 0.00 | 43 | 1009.7 |
| 20260905035009 | 73 | 313 | 3.0 | 9.0 | 0.00 | 0.00 | 0.00 | 43 | 1009.6 |
| 20260905034512 | 73 | 270 | 2.0 | 8.0 | 0.00 | 0.00 | 0.00 | 42 | 1009.6 |
| 20260905034009 | 73 | 335 | 3.0 | 6.0 | 0.00 | 0.00 | 0.00 | 42 | 1009.5 |
| 20260905033510 | 74 | 332 | 3.0 | 5.0 | 0.00 | 0.00 | 0.00 | 42 | 1009.3 |
| 20260905033009 | 74 | 332 | 2.0 | 9.0 | 0.00 | 0.00 | 0.00 | 42 | 1009.2 |
| 20260905032513 | 74 | 354 | 3.0 | 9.0 | 0.00 | 0.00 | 0.00 | 42 | 1009.2 |
| 20260905032009 | 74 | 330 | 3.0 | 9.0 | 0.00 | 0.00 | 0.00 | 42 | 1009.1 |
| 20260905031512 | 74 | 330 | 3.0 | 9.0 | 0.00 | 0.00 | 0.00 | 43 | 1009.0 |
| 20260905031009 | 75 | 297 | 3.0 | 8.0 | 0.00 | 0.00 | 0.00 | 42 | 1009.0 |
| 20260905030510 | 75 | 312 | 3.0 | 8.0 | 0.00 | 0.00 | 0.00 | 42 | 1009.0 |
| 20260905030008 | 75 | 333 | 3.0 | 11.0 | 0.00 | 0.00 | 0.00 | 43 | 1008.9 |
| 20260905025511 | 75 | 320 | 5.0 | 11.0 | 0.00 | 0.00 | 0.00 | 42 | 1009.0 |
| 20260905025011 | 76 | 294 | 5.0 | 8.0 | 0.00 | 0.00 | 0.00 | 42 | 1008.9 |
| 20260905024508 | 76 | 325 | 2.0 | 8.0 | 0.00 | 0.00 | 0.00 | 42 | 1008.9 |
| 20260905024011 | 76 | 328 | 2.0 | 6.0 | 0.00 | 0.00 | 0.00 | 42 | 1008.9 |
| 20260905023508 | 77 | 343 | 2.0 | 8.0 | 0.00 | 0.00 | 0.00 | 42 | 1008.8 |
| 20260905023008 | 77 | 334 | 3.0 | 11.0 | 0.00 | 0.00 | 0.00 | 41 | 1008.8 |
| 20260905022506 | 77 | 343 | 3.0 | 11.0 | 0.00 | 0.00 | 0.00 | 41 | 1008.7 |
| 20260905022011 | 78 | 338 | 3.0 | 6.0 | 0.00 | 0.00 | 0.00 | 41 | 1008.8 |
| 20260905021508 | 78 | 316 | 3.0 | 8.0 | 0.00 | 0.00 | 0.00 | 40 | 1008.7 |
| 20260905021006 | 78 | 324 | 3.0 | 8.0 | 0.00 | 0.00 | 0.00 | 40 | 1008.8 |
| 20260905020507 | 79 | 344 | 3.0 | 9.0 | 0.00 | 0.00 | 0.00 | 39 | 1008.7 |
| 20260905020006 | 79 | 305 | 3.0 | 9.0 | 0.00 | 0.00 | 0.00 | 39 | 1008.7 |
| 20260905015506 | 79 | 318 | 3.0 | 8.0 | 0.00 | 0.00 | 0.00 | 39 | 1008.7 |
| 20260905015006 | 80 | 317 | 3.0 | 9.0 | 0.00 | 0.00 | 0.00 | 39 | 1008.7 |
| 20260905014506 | 80 | 349 | 3.0 | 9.0 | 0.00 | 0.00 | 0.00 | 39 | 1008.8 |
| 20260905014006 | 81 | 341 | 3.0 | 11.0 | 0.00 | 0.00 | 0.00 | 38 | 1008.7 |
| 20260905013507 | 81 | 8 | 3.0 | 11.0 | 0.00 | 0.00 | 0.00 | 38 | 1008.7 |
| 20260905013006 | 81 | 34 | 2.0 | 10.0 | 0.00 | 0.00 | 0.00 | 38 | 1008.7 |
| 20260905012506 | 82 | 324 | 3.0 | 5.0 | 0.00 | 0.00 | 0.00 | 38 | 1008.7 |
| 20260905012006 | 81 | 58 | 1.0 | 5.0 | 0.00 | 0.00 | 0.00 | 38 | 1008.7 |
| 20260905011506 | 81 | 354 | 1.0 | 9.0 | 0.00 | 0.00 | 0.00 | 39 | 1008.7 |
| 20260905011005 | 81 | 313 | 4.0 | 10.0 | 0.00 | 0.00 | 0.00 | 38 | 1008.7 |
| 20260905010505 | 81 | 330 | 4.0 | 10.0 | 0.00 | 0.00 | 0.00 | 38 | 1008.7 |
| 20260905010009 | 81 | 278 | 1.0 | 9.0 | 0.00 | 0.00 | 0.00 | 38 | 1008.7 |
| 20260905005504 | 82 | 8 | 4.0 | 9.0 | 0.00 | 0.00 | 0.00 | 37 | 1008.7 |
| 20260905005005 | 82 | 270 | 4.0 | 9.0 | 0.00 | 0.00 | 0.00 | 36 | 1008.7 |
| 20260905004507 | 83 | 291 | 2.0 | 6.0 | 0.00 | 0.00 | 0.00 | 36 | 1008.7 |
| 20260905004004 | 82 | 29 | 2.0 | 6.0 | 0.00 | 0.00 | 0.00 | 38 | 1008.7 |
| 20260905003504 | 82 | 287 | 4.0 | 7.0 | 0.00 | 0.00 | 0.00 | 37 | 1008.7 |
| 20260905003008 | 83 | 343 | 4.0 | 9.0 | 0.00 | 0.00 | 0.00 | 37 | 1008.7 |
| 20260905002502 | 83 | 328 | 1.0 | 9.0 | 0.00 | 0.00 | 0.00 | 37 | 1008.8 |
| 20260905002003 | 83 | 309 | 2.0 | 8.0 | 0.00 | 0.00 | 0.00 | 36 | 1008.7 |
| 20260905001503 | 83 | 276 | 4.0 | 8.0 | 0.00 | 0.00 | 0.00 | 37 | 1008.8 |
| 20260905001004 | 83 | 135 | 2.0 | 8.0 | 0.00 | 0.00 | 0.00 | 37 | 1008.8 |
| 20260905000503 | 82 | 345 | 3.0 | 9.0 | 0.00 | 0.00 | 0.00 | 37 | 1008.9 |
| 20260905000006 | 82 | 328 | 4.0 | 9.0 | 0.00 | 0.00 | 0.00 | 36 | 1009.0 |
| 20260904235501 | 82 | 293 | 1.0 | 6.0 | 0.00 | 0.00 | 0.00 | 37 | 1009.0 |
| 20260904235002 | 82 | 318 | 4.0 | 8.0 | 0.00 | 0.00 | 0.00 | 37 | 1008.9 |
| 20260904234502 | 82 | 31 | 3.0 | 9.0 | 0.00 | 0.00 | 0.00 | 37 | 1008.9 |
| 20260904234002 | 82 | 328 | 4.0 | 9.0 | 0.00 | 0.00 | 0.00 | 37 | 1009.0 |
| 20260904233502 | 82 | 320 | 2.0 | 6.0 | 0.00 | 0.00 | 0.00 | 37 | 1009.0 |